Regional Weather Roundup
Issued by NWS Cleveland, OH

Home | Current Version | Previous Version | Graphics & Text | Print | Product List | Glossary On
Versions: 1 2 3 4 5 6 7 8 9 10 11 12 13 14 15 16 17 18 19 20 21 22 23 24 25 26 27 28 29 30 31 32 33 34 35 36 37 38 39 40 41 42 43 44 45 46 47 48 49 50
000
ASUS41 KCLE 061102
RWRCLE
OHIO REGIONAL WEATHER ROUNDUP
NATIONAL WEATHER SERVICE CLEVELAND, OH
700 AM EDT WED MAY 06 2015

NOTE: "FAIR" INDICATES FEW OR NO CLOUDS BELOW 12,000 FEET WITH NO
SIGNIFICANT WEATHER AND/OR OBSTRUCTIONS TO VISIBILITY.

OHZ001>008-015>018-024>027-034-035-043-044-061200-
   NORTHWEST OHIO

CITY           SKY/WX    TMP DP  RH WIND       PRES   REMARKS
DEFIANCE       FOG       53  52  96 NE5       30.23R VSB<1/4
FINDLAY        FOG       52  51  97 NE5       30.21S VSB<1/4
TOLEDO EXPRESS FOG       51  51 100 NE6       30.23S VSB 1/8
TOLEDO EXEC    FOG       51  50  96 NE6       30.24S VSB<1/4
LIMA           FOG       53  53 100 E5        30.21R VSB<1/4
$$

OHZ009>014-019>023-028>033-038-089-061200-
   NORTHEAST OHIO

CITY           SKY/WX    TMP DP  RH WIND       PRES   REMARKS
CLE-HOPKINS    FOG       52  52 100 CALM      30.24F VSB 1/16
CLE-LAKEFRONT  CLOUDY    53  52  96 CALM      30.21F FOG
CUY CO. ARPT   CLOUDY    61  59  94 SE6       30.23  FOG
LORAIN-ELYRIA  FOG       50  50 100 N3        30.23S VSB<1/4
ASHTABULA      CLOUDY    54  53  97 SE6       30.24S
AKRON-CANTON   FOG       59  57  93 E6        30.23R VSB 1/8
WOOSTER        FOG       56  56 100 E5        30.23S VSB 1/4
MANSFIELD      FOG       56  56 100 SE6       30.22S VSB<1/4
YOUNGSTOWN     CLOUDY    59  58  96 E7        30.23S FOG
$$

OHZ042-051>053-060>062-070>072-077>081-061200-
  SOUTHWEST OHIO

CITY           SKY/WX    TMP DP  RH WIND       PRES   REMARKS
CINC-COVINGTON PTCLDY    57  53  86 CALM      30.20S
CINC-LUNKEN    CLEAR     53  53 100 CALM      30.21S
HAMILTON       CLEAR     54  53  97 CALM      30.21S FOG
DAYTON         PTCLDY    57  55  93 NW3       30.21S FOG
WRIGHT-PAT AFB CLEAR     57  56  97 CALM      30.20S
DAYTON GENERAL CLEAR     60  54  80 CALM      30.20S
WILMINGTON     CLEAR     58  52  80 CALM      30.21S
$$

OHZ036-037-039>041-045>050-054>059-063>069-073>076-082>088-061200-
  CENTRAL AND SOUTHEAST OHIO

CITY           SKY/WX    TMP DP  RH WIND       PRES   REMARKS
COLUMBUS       PTCLDY    57  55  93 CALM      30.20S
OSU AIRPORT    CLEAR     53  52  96 CALM      30.21S FOG
BOLTON FIELD   NOT AVBL
RICKENBACK AFB NOT AVBL
NEWARK         FOG       56  54  93 CALM      30.21S VSB<1/4
MARION         FOG       57  56  96 CALM      30.21S VSB<1/4
LANCASTER      CLEAR     53  51  93 CALM      30.22R FOG
ZANESVILLE     FOG       54  53  97 CALM      30.21S VSB<1/4
NEW PHILLY     FOG       61  59  93 CALM      30.23R VSB 1/2
$$


USA.gov is the U.S. government's official web portal to all federal, state and local government web resources and services.